FW8535 Weather Reports


Display with metric or nautical units.
time (UTC)temp
F
wind
direction
speed
MPH
gust
MPH
rain 1hr
in
rain 24hr
in
rain mn
in
humidity
%
barometer
mb
20260504190523 52 328 7.0 17.0 0.00 0.00 0.00 42 1010.0
20260504190023 52 232 6.0 18.0 0.00 0.00 0.00 41 1010.0
20260504185522 51 316 9.0 18.0 0.00 0.00 0.00 44 1010.0
20260504185022 50 269 6.0 15.0 0.00 0.00 0.00 45 1010.1
20260504184522 50 18 5.0 17.0 0.00 0.00 0.00 44 1009.9
20260504184024 49 360 6.0 20.0 0.00 0.00 0.00 46 1009.9
20260504183623 49 346 6.0 16.0 0.00 0.00 0.00 44 1010.1
20260504183017 49 14 8.0 16.0 0.00 0.00 0.00 43 1009.9
20260504182519 49 322 6.0 20.0 0.00 0.00 0.00 44 1009.8
20260504182016 49 308 10.0 20.0 0.00 0.00 0.00 43 1009.9
20260504181516 49 313 5.0 18.0 0.00 0.00 0.00 44 1009.9
20260504181017 49 327 7.0 18.0 0.00 0.00 0.00 44 1009.8
20260504180516 50 315 8.0 25.0 0.00 0.00 0.00 43 1009.9
20260504180017 51 342 10.0 25.0 0.00 0.00 0.00 41 1009.9
20260504175516 51 281 7.0 16.0 0.00 0.00 0.00 43 1009.6
20260504175016 50 15 7.0 18.0 0.00 0.00 0.00 44 1009.6
20260504174515 50 293 8.0 18.0 0.00 0.00 0.00 44 1009.8
20260504174016 50 320 10.0 18.0 0.00 0.00 0.00 43 1009.8
20260504173516 51 316 7.0 16.0 0.00 0.00 0.00 43 1009.7
20260504173018 51 265 7.0 16.0 0.00 0.00 0.00 44 1009.7
20260504172518 51 305 10.0 16.0 0.00 0.00 0.00 43 1009.7
20260504172020 51 298 9.0 20.0 0.00 0.00 0.00 43 1009.7
20260504171534 51 302 11.0 25.0 0.00 0.00 0.00 42 1009.6
20260504171018 51 306 10.0 25.0 0.00 0.00 0.00 43 1009.6
20260504170518 52 305 10.0 19.0 0.00 0.00 0.00 41 1009.7
20260504151011 50 305 8.0 20.0 0.00 0.00 0.00 47 1009.1
20260504150512 49 310 8.0 20.0 0.00 0.00 0.00 47 1009.2
20260504141009 48 314 3.0 10.0 0.00 0.00 0.00 54 1009.1
20260504140509 47 355 2.0 10.0 0.00 0.00 0.00 54 1009.3
20260504130505 44 347 2.0 5.0 0.00 0.00 0.00 59 1009.0
20260504110548 44 339 0.0 4.0 0.00 0.00 0.00 53 1007.4
20260504100542 46 360 4.0 6.0 0.00 0.00 0.00 50 1007.0
20260504081558 50 312 3.0 8.0 0.00 0.00 0.00 55 1006.0
20260504081053 50 327 0.0 4.0 0.00 0.00 0.00 53 1006.0
20260504080553 50 344 1.0 4.0 0.00 0.00 0.00 51 1005.7
20260504070154 53 13 7.0 14.0 0.00 0.00 0.00 44 1004.8
20260504060141 51 16 2.0 3.0 0.00 0.00 0.00 50 1003.7
20260504050543 53 13 2.0 4.0 0.00 0.00 0.00 46 1003.1
20260504050144 53 13 3.0 4.0 0.00 0.00 0.00 44 1003.2
20260504045541 54 12 3.0 4.0 0.00 0.00 0.00 44 1003.2
20260504045039 55 5 2.0 4.0 0.00 0.00 0.00 43 1003.2
20260504044542 55 5 3.0 4.0 0.00 0.00 0.00 43 1003.2
20260504044039 56 5 3.0 4.0 0.00 0.00 0.00 42 1003.2
20260504043539 57 5 3.0 4.0 0.00 0.00 0.00 41 1003.1
20260504043040 58 5 2.0 8.0 0.00 0.00 0.00 40 1003.0
20260504042539 58 5 3.0 9.0 0.00 0.00 0.00 39 1003.0
20260504042043 59 355 4.0 10.0 0.00 0.00 0.00 39 1002.9
20260504041539 60 11 6.0 12.0 0.00 0.00 0.00 38 1002.9
20260504041041 60 17 6.0 14.0 0.00 0.00 0.00 38 1002.6
20260504040539 61 34 7.0 18.0 0.00 0.00 0.00 37 1002.5
20260504040140 62 26 9.0 18.0 0.00 0.00 0.00 36 1002.4
20260504035541 63 22 10.0 18.0 0.00 0.00 0.00 35 1002.2
20260504035042 64 5 12.0 22.0 0.00 0.00 0.00 34 1002.1
20260504034542 66 360 5.0 15.0 0.00 0.00 0.00 34 1001.9
20260504034039 66 319 6.0 10.0 0.00 0.00 0.00 34 1001.5
20260504033539 66 327 5.0 11.0 0.00 0.00 0.00 34 1001.2
20260504033041 66 317 4.0 11.0 0.00 0.00 0.00 34 1001.3
20260504032539 66 311 5.0 9.0 0.00 0.00 0.00 35 1001.3
20260504032039 65 315 3.0 9.0 0.00 0.00 0.00 35 1001.2
20260504031539 66 298 3.0 10.0 0.00 0.00 0.00 35 1001.2
20260504031038 66 302 3.0 10.0 0.00 0.00 0.00 35 1001.0
20260504030540 65 281 4.0 8.0 0.00 0.00 0.00 35 1001.1
20260504025540 65 308 3.0 9.0 0.00 0.00 0.00 34 1001.1
20260504025040 66 306 2.0 9.0 0.00 0.00 0.00 33 1001.2
20260504024539 66 316 1.0 6.0 0.00 0.00 0.00 32 1001.0
20260504024039 67 310 2.0 9.0 0.00 0.00 0.00 31 1001.1
20260504023538 68 285 3.0 9.0 0.00 0.00 0.00 30 1001.0
20260504023039 68 299 4.0 10.0 0.00 0.00 0.00 29 1001.0
20260504022538 68 289 5.0 13.0 0.00 0.00 0.00 29 1000.9
20260504022039 68 333 5.0 13.0 0.00 0.00 0.00 28 1001.1
20260504021537 69 310 3.0 10.0 0.00 0.00 0.00 27 1000.9
20260504021038 70 348 4.0 17.0 0.00 0.00 0.00 26 1000.8
20260504020539 70 302 8.0 19.0 0.00 0.00 0.00 26 1000.6
20260504015535 70 286 6.0 13.0 0.00 0.00 0.00 25 1000.6
20260504015036 71 277 5.0 14.0 0.00 0.00 0.00 25 1000.6
20260504014541 71 249 6.0 14.0 0.00 0.00 0.00 24 1000.6
20260504014035 71 299 7.0 13.0 0.00 0.00 0.00 24 1000.8
20260504013533 71 279 7.0 16.0 0.00 0.00 0.00 24 1000.8
20260504013034 71 279 7.0 16.0 0.00 0.00 0.00 25 1000.8
20260504012532 71 284 5.0 12.0 0.00 0.00 0.00 27 1000.9
20260504012032 71 296 5.0 12.0 0.00 0.00 0.00 28 1001.0
20260504011531 72 273 4.0 13.0 0.00 0.00 0.00 28 1000.9
20260504011030 72 267 8.0 13.0 0.00 0.00 0.00 28 1001.1
20260504010530 72 268 5.0 13.0 0.00 0.00 0.00 28 1001.1
20260504010132 73 265 4.0 19.0 0.00 0.00 0.00 27 1001.1
20260504005529 73 270 6.0 19.0 0.00 0.00 0.00 27 1001.1
20260504005028 73 248 8.0 11.0 0.00 0.00 0.00 27 1001.2
20260504004528 74 256 7.0 16.0 0.00 0.00 0.00 27 1001.2
20260504004027 74 240 7.0 16.0 0.00 0.00 0.00 27 1001.3
20260504003527 73 262 7.0 18.0 0.00 0.00 0.00 26 1001.3
20260504003027 74 230 9.0 21.0 0.00 0.00 0.00 26 1001.3
20260504002527 74 278 11.0 21.0 0.00 0.00 0.00 26 1001.4
20260504002026 75 263 7.0 17.0 0.00 0.00 0.00 26 1001.5
20260504001526 75 296 7.0 17.0 0.00 0.00 0.00 25 1001.6
20260504001026 75 269 10.0 15.0 0.00 0.00 0.00 24 1001.7
20260504000524 75 281 7.0 14.0 0.00 0.00 0.00 24 1001.7
20260504000127 75 259 9.0 19.0 0.00 0.00 0.00 23 1001.8
20260503235525 75 256 10.0 19.0 0.00 0.00 0.00 23 1001.7
20260503235025 75 311 8.0 19.0 0.00 0.00 0.00 22 1001.9
20260503234538 76 234 7.0 14.0 0.00 0.00 0.00 23 1001.9
20260503234024 75 286 7.0 17.0 0.00 0.00 0.00 24 1002.1
20260503233523 75 242 9.0 18.0 0.00 0.00 0.00 23 1002.0
20260503233024 75 279 11.0 18.0 0.00 0.00 0.00 23 1002.2
20260503232523 76 292 9.0 17.0 0.00 0.00 0.00 23 1002.4
20260503232022 76 266 9.0 19.0 0.00 0.00 0.00 22 1002.5
20260503231522 76 319 9.0 19.0 0.00 0.00 0.00 21 1002.4
20260503231024 76 237 8.0 23.0 0.00 0.00 0.00 22 1002.8
20260503230522 76 262 10.0 23.0 0.00 0.00 0.00 20 1002.8
20260503230121 76 296 11.0 20.0 0.00 0.00 0.00 18 1002.9
20260503225521 76 275 9.0 18.0 0.00 0.00 0.00 18 1002.8
20260503225018 76 275 8.0 19.0 0.00 0.00 0.00 19 1003.2
20260503224518 76 287 9.0 19.0 0.00 0.00 0.00 19 1003.3
20260503224018 76 277 11.0 20.0 0.00 0.00 0.00 18 1003.2
20260503223521 76 300 9.0 17.0 0.00 0.00 0.00 18 1003.1
20260503223018 77 268 10.0 21.0 0.00 0.00 0.00 20 1003.3
20260503222516 77 290 9.0 21.0 0.00 0.00 0.00 18 1003.3
20260503222019 76 260 9.0 21.0 0.00 0.00 0.00 21 1003.4
20260503221516 75 258 10.0 21.0 0.00 0.00 0.00 22 1003.5
20260503221018 76 265 9.0 18.0 0.00 0.00 0.00 22 1003.4
20260503220517 77 317 8.0 15.0 0.00 0.00 0.00 19 1003.6
20260503220113 75 278 7.0 16.0 0.00 0.00 0.00 22 1003.5
20260503215517 75 299 6.0 17.0 0.00 0.00 0.00 22 1003.7
20260503215015 75 266 9.0 17.0 0.00 0.00 0.00 22 1003.9
20260503214513 75 288 6.0 20.0 0.00 0.00 0.00 23 1003.8
20260503214012 76 304 10.0 25.0 0.00 0.00 0.00 23 1003.8
20260503213514 76 246 10.0 25.0 0.00 0.00 0.00 24 1003.9
20260503213012 76 256 7.0 20.0 0.00 0.00 0.00 26 1004.1
20260503212510 76 286 12.0 19.0 0.00 0.00 0.00 25 1004.1
20260503212010 75 277 9.0 21.0 0.00 0.00 0.00 27 1004.2
20260503211508 75 225 10.0 21.0 0.00 0.00 0.00 25 1004.3
20260503211007 74 259 9.0 21.0 0.00 0.00 0.00 26 1004.4
20260503210508 75 278 10.0 21.0 0.00 0.00 0.00 25 1004.5
20260503210107 76 292 10.0 28.0 0.00 0.00 0.00 26 1004.6
20260503205508 76 250 10.0 28.0 0.00 0.00 0.00 27 1004.7
20260503205008 76 242 16.0 28.0 0.00 0.00 0.00 26 1004.7
20260503204507 76 233 8.0 23.0 0.00 0.00 0.00 27 1004.8
20260503204009 77 231 12.0 23.0 0.00 0.00 0.00 25 1005.1
20260503203504 76 234 10.0 19.0 0.00 0.00 0.00 27 1005.1
20260503203006 76 284 9.0 16.0 0.00 0.00 0.00 26 1005.4
20260503202503 75 286 7.0 17.0 0.00 0.00 0.00 29 1005.4
20260503202002 76 239 9.0 17.0 0.00 0.00 0.00 28 1005.5
20260503201501 76 259 8.0 26.0 0.00 0.00 0.00 28 1005.6
20260503201003 75 266 13.0 26.0 0.00 0.00 0.00 28 1005.7
20260503200501 75 236 12.0 23.0 0.00 0.00 0.00 28 1005.6
20260503200104 75 250 10.0 23.0 0.00 0.00 0.00 28 1005.8
20260503195057 75 250 13.0 19.0 0.00 0.00 0.00 28 1006.0
20260503194557 76 286 10.0 34.0 0.00 0.00 0.00 28 1006.2
20260503194058 75 256 11.0 34.0 0.00 0.00 0.00 28 1006.1
20260503193555 75 286 8.0 17.0 0.00 0.00 0.00 27 1006.4
20260503193106 75 250 8.0 25.0 0.00 0.00 0.00 28 1006.5
20260503192554 75 240 11.0 25.0 0.00 0.00 0.00 27 1006.7
20260503192052 75 268 9.0 19.0 0.00 0.00 0.00 28 1006.8
20260503191552 75 238 10.0 19.0 0.00 0.00 0.00 27 1006.9
20260503191054 75 238 9.0 21.0 0.00 0.00 0.00 28 1007.0